Weather in Kiik

Russia / Novosibirsk Oblast     55°14′51″N   84°41′36″E
temp.,
°C
wind,
m/s
gust,
m/s
humid.,
%
clouds,
%
prec.,
mm/h
press.,
hPa
HPBL,
m
27 february, sat
sat2701:00−24wsw51195100 0.1 1035785
04:00−25sw41097100 0.1 1036644
07:00−25sw41097100 0.3 1037557
10:00−24sw51093100 0.1 1037630
13:00−22wsw5891100 0.2 1037719
16:00−21wsw5789100 0.1 1037729
19:00−24sw3495100 0.1 103878
22:00−27sw339887 0.0 103923
28 february, sun
sun2801:00−29sw339885 0.0 103926
04:00−30ssw239778 0.0 103921
07:00−31s239547 0.0 104021
10:00−27sse249447 0.0 1039106
13:00−21sse359265 0.0 1036297
16:00−17se359380 0.0 1034309
19:00−19ese349690 0.0 103156
22:00−17se3596100 0.1 1028114
1 march, mon
mon101:00−13se3796100 0.6 1025207
04:00−12se4895100 0.3 1021216
07:00−10se4796100 1.0 1018248
10:00−7se5895100 1.2 1014495
13:00−5sse5795100 2.2 1011552
16:00−2s5997100 2.5 1009543
19:00−2ssw71589100 3.8 1007718
22:00−1sw81497100 0.6 1007761
2 march, tue
tue201:00−2w61295100 2.3 1007713
04:00−10nw2496100 0.2 1009112
07:00−10nw1296100 0.8 101175
10:00−11wsw589396 0.3 1014435
13:00−10w479198 0.5 1017584
16:00−10w4689100 0.2 1018714
19:00−12sw3695100 0.4 1018214
22:00−15wsw229597 0.1 101923
3 march, wed
wed301:00−17ssw119697 0.1 101820
04:00−16se1197100 0.1 101620
07:00−16e1296100 0.2 101620
10:00−14ene239598 0.1 1015163
13:00−11e229099 0.4 1016371
16:00−9nnw1190100 0.4 1017308
19:00−12nnw2295100 0.7 101941
22:00−15ene119790 0.2 102221